EW3608 Weather Reports


Display with metric or nautical units.
time (UTC)temp
F
wind
direction
speed
MPH
gust
MPH
rain 1hr
in
rain 24hr
in
rain mn
in
humidity
%
barometer
mb
20260506002511 33 328 0.0 3.0 0.00 0.69 0.47 94 1014.2
20260506002003 33 342 0.0 3.0 0.00 0.69 0.47 94 1014.1
20260506001506 33 342 1.0 4.0 0.00 0.69 0.47 94 1014.1
20260506001004 33 331 1.0 4.0 0.00 0.69 0.47 94 1014.1
20260506000507 33 336 0.0 3.0 0.00 0.69 0.47 94 1013.9
20260506000014 33 352 1.0 3.0 0.00 0.69 0.47 94 1013.9
20260505235508 33 349 0.0 2.0 0.00 0.69 0.47 94 1014.0
20260505235009 33 345 0.0 2.0 0.00 0.69 0.47 94 1014.0
20260505234536 33 268 0.0 2.0 0.00 0.69 0.47 94 1013.8
20260505234004 33 234 0.0 3.0 0.00 0.69 0.47 94 1013.9
20260505233506 32 344 1.0 3.0 0.00 0.69 0.47 94 1013.9
20260505233009 32 265 1.0 3.0 0.00 0.69 0.47 94 1013.7
20260505232506 32 352 0.0 2.0 0.00 0.69 0.47 94 1013.6
20260505232007 32 327 0.0 4.0 0.00 0.69 0.47 94 1013.6
20260505231520 32 5 1.0 4.0 0.01 0.69 0.47 94 1013.6
20260505231009 32 360 1.0 4.0 0.01 0.69 0.47 94 1013.7
20260505230509 32 347 1.0 3.0 0.01 0.69 0.47 94 1013.7
20260505230006 32 332 1.0 4.0 0.01 0.69 0.47 94 1013.8
20260505225503 32 350 0.0 4.0 0.01 0.69 0.47 93 1013.8
20260505225004 33 317 2.0 5.0 0.02 0.69 0.47 93 1013.7
20260505224512 33 349 1.0 5.0 0.02 0.69 0.47 93 1013.9
20260505224009 33 291 1.0 4.0 0.02 0.69 0.47 93 1013.9
20260505223511 33 343 1.0 5.0 0.02 0.69 0.47 93 1013.9
20260505223023 33 325 2.0 5.0 0.02 0.69 0.47 93 1013.6
20260505222510 33 331 3.0 5.0 0.02 0.69 0.47 93 1013.5
20260505222003 33 340 1.0 5.0 0.02 0.69 0.47 93 1013.1
20260505221507 33 352 3.0 8.0 0.01 0.68 0.46 93 1013.1
20260505221003 33 30 2.0 8.0 0.01 0.68 0.46 92 1013.0
20260505220508 34 332 3.0 5.0 0.02 0.68 0.46 92 1013.7
20260505220024 34 360 1.0 8.0 0.02 0.68 0.46 92 1013.6
20260505215508 34 342 3.0 8.0 0.02 0.68 0.46 92 1013.3
20260505215010 34 351 2.0 12.0 0.01 0.67 0.45 92 1013.0
20260505214531 34 29 4.0 12.0 0.01 0.67 0.45 92 1012.9
20260505214003 34 352 3.0 13.0 0.01 0.67 0.45 93 1012.8
20260505213503 34 313 6.0 13.0 0.01 0.67 0.45 93 1012.9
20260505213008 34 42 4.0 10.0 0.02 0.67 0.45 93 1012.9
20260505212512 34 59 2.0 12.0 0.02 0.67 0.45 93 1013.0
20260505212015 34 325 3.0 12.0 0.03 0.67 0.45 92 1013.1
20260505211520 34 352 4.0 9.0 0.03 0.67 0.45 92 1013.2
20260505211008 35 54 1.0 12.0 0.04 0.67 0.45 92 1013.4
20260505210511 35 25 4.0 12.0 0.04 0.66 0.44 90 1013.4
20260505210028 36 5 3.0 12.0 0.04 0.66 0.44 89 1013.4
20260505205505 37 78 6.0 12.0 0.04 0.66 0.44 91 1013.1
20260505205007 38 352 3.0 6.0 0.04 0.66 0.44 93 1012.9
20260505204514 37 315 1.0 5.0 0.04 0.66 0.44 93 1013.0
20260505204011 37 333 1.0 5.0 0.04 0.66 0.44 92 1013.2
20260505203507 37 352 1.0 5.0 0.04 0.66 0.44 92 1013.3
20260505203025 37 5 1.0 5.0 0.03 0.65 0.43 92 1013.4
20260505202510 37 351 1.0 5.0 0.03 0.65 0.43 92 1013.5
20260505202016 37 335 2.0 3.0 0.02 0.64 0.42 92 1013.7
20260505201511 37 296 1.0 6.0 0.02 0.64 0.42 91 1013.7
20260505201004 37 338 2.0 6.0 0.01 0.63 0.41 91 1013.6
20260505200507 37 342 2.0 4.0 0.00 0.62 0.40 92 1013.8
20260505200020 37 9 2.0 4.0 0.01 0.62 0.40 92 1014.0
20260505195507 37 317 2.0 4.0 0.01 0.62 0.40 91 1013.9
20260505195016 37 29 3.0 4.0 0.01 0.62 0.40 92 1013.6
20260505194534 37 5 1.0 4.0 0.01 0.62 0.40 92 1013.6
20260505194010 37 319 1.0 5.0 0.02 0.62 0.40 92 1013.6
20260505193504 37 15 2.0 5.0 0.02 0.62 0.40 92 1013.8
20260505193031 37 38 1.0 3.0 0.02 0.62 0.40 92 1013.9
20260505192507 37 333 2.0 4.0 0.03 0.62 0.40 92 1013.9
20260505192009 37 45 1.0 4.0 0.03 0.62 0.40 92 1013.9
20260505191532 37 33 2.0 3.0 0.03 0.62 0.40 92 1013.8
20260505191014 37 349 1.0 3.0 0.04 0.62 0.40 92 1013.6
20260505190511 37 302 0.0 2.0 0.04 0.62 0.40 93 1013.7
20260505190029 37 352 0.0 3.0 0.04 0.61 0.39 93 1013.7
20260505185504 36 350 1.0 3.0 0.05 0.61 0.39 92 1013.8
20260505185004 36 340 1.0 2.0 0.06 0.61 0.39 92 1013.8
20260505184514 36 19 1.0 2.0 0.06 0.61 0.39 92 1013.9
20260505184011 36 32 0.0 2.0 0.05 0.60 0.38 92 1014.0
20260505183511 36 40 1.0 2.0 0.05 0.60 0.38 93 1013.8
20260505183029 36 32 0.0 2.0 0.06 0.60 0.38 92 1013.9
20260505182510 36 344 0.0 3.0 0.05 0.58 0.37 92 1014.2
20260505182013 35 344 0.0 3.0 0.05 0.58 0.37 92 1014.4
20260505181508 36 28 1.0 3.0 0.05 0.58 0.37 92 1014.5
20260505181006 36 324 1.0 3.0 0.04 0.58 0.36 91 1014.5
20260505180510 36 351 0.0 2.0 0.04 0.58 0.36 91 1014.5
20260505180029 36 330 0.0 2.0 0.03 0.57 0.35 92 1014.5
20260505175510 36 331 1.0 3.0 0.02 0.56 0.34 93 1014.4
20260505175011 36 24 1.0 3.0 0.01 0.55 0.33 93 1014.5
20260505174537 36 37 0.0 2.0 0.01 0.55 0.33 93 1014.5
20260505174011 36 327 0.0 3.0 0.02 0.55 0.33 93 1014.5
20260505173504 36 352 1.0 4.0 0.02 0.55 0.33 92 1014.5
20260505173016 36 17 1.0 4.0 0.01 0.54 0.32 92 1014.7
20260505172509 36 333 0.0 3.0 0.01 0.54 0.32 93 1014.8
20260505172012 36 348 1.0 3.0 0.01 0.54 0.32 93 1014.8
20260505171529 36 325 1.0 5.0 0.01 0.54 0.32 93 1014.9
20260505171007 36 349 3.0 5.0 0.02 0.54 0.32 92 1015.1
20260505170510 36 348 0.0 3.0 0.02 0.54 0.32 93 1015.2
20260505170032 36 352 1.0 3.0 0.02 0.54 0.32 93 1015.1
20260505165503 36 9 0.0 2.0 0.02 0.54 0.32 93 1015.0
20260505165007 36 342 0.0 2.0 0.02 0.54 0.32 94 1014.9
20260505164520 36 30 0.0 2.0 0.03 0.54 0.32 93 1015.0
20260505164010 36 15 1.0 2.0 0.02 0.52 0.31 94 1015.0
20260505163510 36 17 0.0 3.0 0.02 0.52 0.31 93 1015.0
20260505163026 36 22 0.0 3.0 0.03 0.52 0.31 93 1015.0
20260505162510 36 347 0.0 3.0 0.03 0.52 0.31 94 1015.0
20260505162014 35 338 2.0 3.0 0.03 0.52 0.31 93 1015.0
20260505161529 35 324 1.0 3.0 0.04 0.52 0.31 94 1015.1
20260505161007 35 349 1.0 4.0 0.03 0.52 0.30 94 1015.2
20260505160508 35 56 1.0 4.0 0.03 0.52 0.30 94 1015.3
20260505153004 35 5 0.0 2.0 0.04 0.50 0.28 94 1015.4
20260505152504 35 22 1.0 2.0 0.05 0.50 0.28 94 1015.4
20260505152006 35 13 0.0 2.0 0.05 0.50 0.28 94 1015.5
20260505151503 35 39 1.0 2.0 0.05 0.49 0.27 94 1015.6
20260505151003 35 18 1.0 2.0 0.05 0.49 0.27 94 1015.6
20260505150503 35 59 0.0 2.0 0.06 0.49 0.27 94 1015.5
20260505140505 34 337 0.0 2.0 0.03 0.43 0.21 94 1015.6
20260505125003 33 269 0.0 2.0 0.02 0.40 0.18 93 1014.7
20260505124507 33 275 0.0 2.0 0.02 0.40 0.18 93 1014.7
20260505124003 33 261 0.0 2.0 0.02 0.40 0.18 93 1014.7
20260505123502 33 324 0.0 2.0 0.03 0.40 0.18 93 1014.7
20260505123004 33 316 0.0 2.0 0.02 0.39 0.17 93 1014.7
20260505122502 33 319 0.0 2.0 0.02 0.39 0.17 92 1014.7
20260505122002 34 338 0.0 2.0 0.03 0.39 0.17 92 1014.7
20260505121504 34 338 0.0 2.0 0.03 0.39 0.17 92 1014.7
20260505121003 34 327 0.0 4.0 0.03 0.39 0.17 92 1014.6
20260505120504 34 338 1.0 5.0 0.03 0.39 0.17 92 1014.5
20260505120006 34 352 1.0 5.0 0.03 0.39 0.17 92 1014.5
20260505115507 35 303 1.0 4.0 0.03 0.39 0.17 92 1014.4
20260505115003 35 32 2.0 6.0 0.03 0.38 0.16 92 1014.3
20260505114505 35 351 1.0 6.0 0.03 0.38 0.16 91 1014.3
20260505114003 35 325 0.0 5.0 0.03 0.38 0.16 92 1014.3
20260505113502 35 337 1.0 5.0 0.03 0.37 0.15 92 1014.2
20260505113005 36 26 2.0 5.0 0.03 0.37 0.15 92 1014.2
20260505112504 36 5 0.0 8.0 0.04 0.37 0.15 91 1014.1
20260505112001 36 16 4.0 7.0 0.03 0.36 0.14 91 1014.0
20260505111507 36 25 1.0 9.0 0.03 0.36 0.14 92 1014.0
20260505111002 36 330 2.0 9.0 0.03 0.36 0.14 91 1014.0
20260505110503 36 15 3.0 8.0 0.03 0.36 0.14 91 1014.0
20260505102003 40 360 3.0 13.0 0.09 0.33 0.11 90 1013.5
20260505101508 40 287 3.0 9.0 0.10 0.33 0.11 89 1013.5
20260505101004 40 360 4.0 9.0 0.10 0.33 0.11 89 1013.4
20260505100505 41 20 3.0 6.0 0.10 0.33 0.11 90 1013.3
20260505100008 41 343 3.0 8.0 0.10 0.33 0.11 90 1013.2
20260505095502 41 351 2.0 8.0 0.09 0.32 0.10 90 1013.1
20260505095002 41 360 1.0 9.0 0.09 0.32 0.10 90 1013.1
20260505094508 41 341 4.0 9.0 0.08 0.31 0.09 89 1013.1
20260505094003 41 63 2.0 6.0 0.07 0.30 0.08 89 1013.1
20260505093503 41 78 2.0 9.0 0.06 0.29 0.07 89 1012.9
20260505093010 41 288 3.0 8.0 0.05 0.28 0.06 89 1012.9
20260505092503 42 33 3.0 11.0 0.03 0.26 0.04 89 1012.9
20260505090006 42 325 2.0 8.0 0.00 0.23 0.01 89 1012.7
20260505085504 42 252 2.0 8.0 0.00 0.23 0.01 88 1012.6
20260505085005 42 24 2.0 7.0 0.00 0.23 0.01 88 1012.5
20260505084516 42 352 3.0 7.0 0.00 0.23 0.01 88 1012.7
20260505084004 42 261 1.0 3.0 0.00 0.23 0.01 89 1012.7
20260505083503 42 342 1.0 8.0 0.01 0.23 0.01 88 1012.6
20260505083014 42 310 1.0 8.0 0.01 0.23 0.01 88 1012.6
20260505082503 43 338 3.0 10.0 0.01 0.23 0.01 88 1012.4
20260505082004 43 350 5.0 10.0 0.01 0.23 0.01 88 1012.4
20260505081508 43 289 0.0 8.0 0.01 0.23 0.01 88 1012.6
20260505081009 43 9 2.0 8.0 0.01 0.23 0.01 87 1012.6
20260505080506 43 360 3.0 8.0 0.01 0.23 0.01 87 1012.7
20260505080023 43 32 3.0 10.0 0.01 0.23 0.01 87 1012.5
20260505075503 43 311 3.0 11.0 0.01 0.23 0.01 87 1012.4
20260505075007 43 360 5.0 11.0 0.01 0.23 0.01 87 1012.4
20260505074510 44 352 4.0 10.0 0.01 0.23 0.01 86 1012.3
20260505074004 44 19 3.0 10.0 0.01 0.23 0.01 86 1012.3
20260505073504 45 348 3.0 15.0 0.00 0.22 0.00 85 1012.3
20260505073014 45 84 6.0 15.0 0.00 0.22 0.00 85 1012.2
20260505072507 46 5 4.0 13.0 0.00 0.22 0.00 89 1012.1
20260505072007 46 338 5.0 10.0 0.00 0.22 0.00 92 1012.0
20260505071511 45 19 2.0 3.0 0.00 0.22 0.00 92 1012.0
20260505071008 45 340 0.0 2.0 0.00 0.22 0.00 92 1012.0
20260505070510 45 277 0.0 2.0 0.00 0.22 0.00 92 1011.8
20260505070014 45 277 0.0 2.0 0.00 0.22 0.00 92 1011.6
20260505065503 45 263 0.0 2.0 0.00 0.22 0.00 91 1011.6
20260505065004 45 263 0.0 2.0 0.00 0.22 0.00 92 1011.5
20260505064513 45 304 0.0 2.0 0.00 0.22 0.00 92 1011.5
20260505064004 45 319 0.0 2.0 0.00 0.22 0.00 92 1011.6
20260505063504 45 360 0.0 2.0 0.00 0.22 0.00 92 1011.5
20260505063012 45 360 0.0 2.0 0.00 0.22 0.00 92 1011.5
20260505062505 45 360 0.0 2.0 0.00 0.22 0.00 92 1011.5
20260505062004 45 360 0.0 2.0 0.00 0.22 0.00 92 1011.5
20260505061518 45 360 0.0 2.0 0.00 0.22 0.00 93 1011.6
20260505061009 45 12 0.0 1.0 0.00 0.22 0.00 93 1011.6
20260505060507 45 38 1.0 2.0 0.00 0.22 0.00 93 1011.6
20260505060014 45 238 0.0 2.0 0.00 0.22 0.00 92 1011.4
20260505055507 45 238 0.0 2.0 0.00 0.22 0.22 92 1011.5
20260505055007 45 238 0.0 2.0 0.00 0.22 0.22 92 1011.5
20260505054514 45 238 0.0 2.0 0.00 0.22 0.22 92 1011.5
20260505054012 45 238 0.0 2.0 0.00 0.22 0.22 92 1011.5
20260505053506 46 238 0.0 2.0 0.00 0.22 0.22 92 1011.3
20260505053015 46 238 0.0 2.0 0.00 0.22 0.22 92 1011.4
20260505052504 46 235 0.0 0.0 0.00 0.22 0.22 92 1011.2
20260505052008 46 235 0.0 2.0 0.00 0.22 0.22 92 1011.2
20260505051524 46 235 0.0 2.0 0.00 0.22 0.22 91 1011.3
20260505051004 46 235 0.0 2.0 0.00 0.22 0.22 91 1011.4
20260505050508 46 235 0.0 2.0 0.00 0.22 0.22 91 1011.4
20260505041526 47 200 0.0 2.0 0.01 0.22 0.22 90 1011.8
20260505041007 47 194 0.0 2.0 0.02 0.22 0.22 91 1011.9
20260505040507 47 209 0.0 2.0 0.03 0.22 0.22 91 1011.9
20260505040016 47 225 0.0 2.0 0.04 0.22 0.22 91 1011.9
20260505035507 47 225 0.0 2.0 0.06 0.22 0.22 90 1011.8
20260505035007 47 240 1.0 2.0 0.09 0.22 0.22 90 1011.7
20260505034513 47 215 0.0 2.0 0.11 0.22 0.22 90 1011.8
20260505034012 47 226 0.0 2.0 0.14 0.22 0.22 90 1011.8
20260505033513 47 231 0.0 2.0 0.15 0.21 0.21 89 1011.9
20260505033017 47 224 0.0 2.0 0.17 0.21 0.21 89 1011.9
20260505032505 48 229 0.0 2.0 0.19 0.21 0.21 89 1012.0
20260505032012 48 234 0.0 2.0 0.20 0.21 0.21 88 1012.0
20260505031512 48 229 0.0 2.0 0.20 0.21 0.21 87 1011.9
20260505031008 48 252 1.0 3.0 0.19 0.20 0.20 87 1011.8
20260505030506 48 261 1.0 8.0 0.18 0.19 0.19 86 1011.9
20260505030018 49 288 2.0 8.0 0.17 0.18 0.18 85 1011.9
20260505025503 49 259 1.0 5.0 0.16 0.16 0.16 86 1011.8
20260505025004 49 221 1.0 8.0 0.13 0.13 0.13 86 1011.7
20260505024515 50 270 2.0 8.0 0.11 0.11 0.11 86 1011.6
20260505024005 50 237 1.0 5.0 0.08 0.08 0.08 85 1011.5
20260505023505 50 276 2.0 5.0 0.06 0.06 0.06 84 1011.4
20260505023011 50 153 0.0 2.0 0.04 0.04 0.04 83 1011.4
20260505022510 50 124 0.0 2.0 0.02 0.02 0.02 81 1011.2
20260505022006 51 123 0.0 0.0 0.01 0.01 0.01 79 1011.0
20260505021503 51 123 0.0 0.0 0.01 0.01 0.01 78 1011.0
20260505021004 51 123 0.0 1.0 0.01 0.01 0.01 77 1010.9
20260505020503 51 123 0.0 2.0 0.01 0.01 0.01 76 1010.8
20260505020006 51 123 0.0 2.0 0.01 0.01 0.01 75 1010.9
20260505015506 51 116 0.0 2.0 0.00 0.00 0.00 76 1011.0
20260505015010 51 115 0.0 2.0 0.00 0.00 0.00 75 1010.9
20260505014519 51 128 0.0 2.0 0.00 0.00 0.00 75 1010.8
20260505014008 51 121 0.0 8.0 0.00 0.00 0.00 72 1010.7
20260505013512 52 87 1.0 10.0 0.00 0.00 0.00 70 1010.6
20260505013016 52 349 2.0 10.0 0.00 0.00 0.00 70 1010.5
20260505012502 53 344 4.0 12.0 0.00 0.00 0.00 67 1010.5
20260505012005 54 24 5.0 12.0 0.00 0.00 0.00 61 1010.6
20260505011514 56 343 4.0 14.0 0.00 0.00 0.00 57 1010.5
20260505011006 57 315 3.0 14.0 0.00 0.00 0.00 53 1010.5
20260505010509 58 55 5.0 14.0 0.00 0.00 0.00 50 1010.5
20260505010020 58 60 2.0 8.0 0.00 0.00 0.00 49 1010.1
20260505005507 58 5 1.0 4.0 0.00 0.00 0.00 48 1010.1
20260505005004 58 341 2.0 5.0 0.00 0.00 0.00 48 1010.0
20260505004505 58 350 1.0 5.0 0.00 0.00 0.00 48 1009.9
20260505004004 58 339 3.0 6.0 0.00 0.00 0.00 48 1009.9
20260505003511 59 333 2.0 6.0 0.00 0.00 0.00 48 1009.9
20260505003017 59 339 3.0 6.0 0.00 0.00 0.00 48 1009.9